Puyallup, WA
on Friday, November 9, 2012

Friday
Previous Day Next Day
Daily Summary
 ActualAverage (KSEA)Record (KSEA)
Temperature
Mean Temperature °F 47°F  
Max Temperature 46°F 52°F 64°F (1997)
Min Temperature 26°F 41°F 27°F (1948)
Degree Days
Heating Degree Days 29 18  
Month to date heating degree days 155  
Since 1 July heating degree days 752  
Cooling Degree Days 0 0  
Month to date cooling degree days 0  
Year to date cooling degree days 189  
Moisture
Dew Point 31°F   
Average Humidity 87    
Maximum Humidity 100    
Minimum Humidity 53    
Precipitation
Precipitation 0.00 in 0.21 in 2.95 in (1990)
Month to date precipitation 1.82  
Year to date precipitation 27.39  
Snow
Snow 0.00 in in in ()
Month to date snowfall  
Since 1 July snowfall  
Snow Depth in   
Wind
Wind Speed 0 mph   
Max Wind Speed 0 mph   
Max Gust Speed mph   
Visibility 10 miles   
Events     

Key: T is trace of precipitation, MM is missing value
Source: NWS Daily Summary
Time(PST)TemperatureDew PointHumidity Pressure Visibility Wind DirectionWind SpeedGust SpeedPrecipitationEvents Conditions
12:15 AM 37.4°F 37.4°F 100% 29.85 in 10.0 miles Calm Calm - N/A   Overcast
12:35 AM 37.4°F 37.4°F 100% 29.85 in 10.0 miles Calm Calm - N/A   Overcast
12:55 AM 35.6°F 35.6°F 100% 29.85 in 10.0 miles Calm Calm - N/A   Mostly Cloudy
1:15 AM 33.8°F 33.8°F 100% 29.85 in 10.0 miles Calm Calm - N/A   Partly Cloudy
1:35 AM 32.0°F 32.0°F 100% 29.85 in 10.0 miles Calm Calm - N/A   Clear
1:55 AM 33.8°F 33.8°F 100% 29.86 in 10.0 miles Calm Calm - N/A   Mostly Cloudy
2:15 AM 33.8°F 33.8°F 100% 29.86 in 10.0 miles Calm Calm - N/A   Mostly Cloudy
2:35 AM 33.8°F 33.8°F 100% 29.86 in 10.0 miles Calm Calm - N/A   Partly Cloudy
2:55 AM 33.8°F 33.8°F 100% 29.86 in 10.0 miles Calm Calm - N/A   Clear
3:15 AM 32.0°F 32.0°F 100% 29.86 in 10.0 miles Calm Calm - N/A   Clear
3:35 AM 32.0°F 32.0°F 100% 29.86 in 10.0 miles Calm Calm - N/A   Clear
3:55 AM 32.0°F 32.0°F 100% 29.86 in 10.0 miles Calm Calm - N/A   Clear
4:15 AM 32.0°F 32.0°F 100% 29.86 in 10.0 miles Calm Calm - N/A   Clear
4:35 AM 32.0°F 32.0°F 100% 29.86 in 10.0 miles Calm Calm - N/A   Clear
4:55 AM 32.0°F 32.0°F 100% 29.86 in 10.0 miles Calm Calm - N/A   Clear
5:15 AM 32.0°F 32.0°F 100% 29.87 in 10.0 miles Calm Calm - N/A   Clear
5:35 AM 32.0°F 32.0°F 100% 29.87 in 10.0 miles Calm Calm - N/A   Clear
5:55 AM 32.0°F 32.0°F 100% 29.87 in 10.0 miles Calm Calm - N/A   Clear
6:15 AM 28.4°F 28.4°F 100% 29.87 in 10.0 miles Calm Calm - N/A   Clear
6:35 AM 28.4°F 28.4°F 100% 29.87 in 10.0 miles Calm Calm - N/A   Clear
6:55 AM 28.4°F 28.4°F 100% 29.88 in 10.0 miles Calm Calm - N/A   Clear
7:15 AM 30.2°F 30.2°F 100% 29.88 in 10.0 miles Calm Calm - N/A   Clear
7:35 AM 30.2°F 30.2°F 100% 29.89 in 10.0 miles Calm Calm - N/A   Clear
7:55 AM 32.0°F 32.0°F 100% 29.89 in 10.0 miles Calm Calm - N/A   Clear
8:15 AM 32.0°F 32.0°F 100% 29.89 in 10.0 miles Calm Calm - N/A   Clear
8:35 AM 33.8°F 33.8°F 100% 29.89 in 10.0 miles Calm Calm - N/A   Clear
8:55 AM 37.4°F 37.4°F 100% 29.89 in 10.0 miles Calm Calm - N/A   Clear
9:15 AM 39.2°F 37.4°F 93% 29.89 in 10.0 miles Calm Calm - N/A   Clear
9:35 AM 42.8°F 35.6°F 76% 29.89 in 10.0 miles Calm Calm - N/A   Clear
9:55 AM 44.6°F 33.8°F 66% 29.90 in 10.0 miles Calm Calm - N/A   Clear
10:15 AM 44.6°F 32.0°F 61% 29.90 in 10.0 miles Calm Calm - N/A   Clear
10:35 AM 46.4°F 32.0°F 57% 29.90 in 10.0 miles Calm Calm - N/A   Partly Cloudy
10:55 AM 44.6°F 32.0°F 61% 29.90 in 10.0 miles Calm Calm - N/A   Partly Cloudy
11:15 AM 46.4°F 32.0°F 57% 29.90 in 10.0 miles Calm Calm - N/A   Partly Cloudy
11:35 AM 44.6°F 32.0°F 61% 29.90 in 10.0 miles Calm Calm - N/A   Mostly Cloudy
11:55 AM 46.4°F 32.0°F 57% 29.90 in 10.0 miles Calm Calm - N/A   Scattered Clouds
12:15 PM 44.6°F 32.0°F 61% 29.89 in 10.0 miles Calm Calm - N/A   Scattered Clouds
12:35 PM 44.6°F 32.0°F 61% 29.89 in 10.0 miles Calm Calm - N/A   Scattered Clouds
12:55 PM 44.6°F 32.0°F 61% 29.89 in 10.0 miles Calm Calm - N/A   Scattered Clouds
1:15 PM 44.6°F 32.0°F 61% 29.89 in 10.0 miles Calm Calm - N/A   Mostly Cloudy
1:35 PM 44.6°F 32.0°F 61% 29.88 in 10.0 miles Calm Calm - N/A   Mostly Cloudy
1:55 PM 44.6°F 32.0°F 61% 29.88 in 10.0 miles Calm Calm - N/A   Mostly Cloudy
2:15 PM 44.6°F 32.0°F 61% 29.88 in 10.0 miles Calm Calm - N/A   Mostly Cloudy
2:35 PM 42.8°F 32.0°F 66% 29.88 in 10.0 miles Calm Calm - N/A   Partly Cloudy
2:55 PM 44.6°F 32.0°F 61% 29.88 in 10.0 miles Calm Calm - N/A   Clear
3:15 PM 44.6°F 28.4°F 53% 29.88 in 10.0 miles Calm Calm - N/A   Clear
3:35 PM 44.6°F 28.4°F 53% 29.88 in 10.0 miles Calm Calm - N/A   Clear
3:55 PM 44.6°F 28.4°F 53% 29.88 in 10.0 miles Calm Calm - N/A   Clear
4:15 PM 42.8°F 30.2°F 61% 29.88 in 10.0 miles Calm Calm - N/A   Clear
4:35 PM 39.2°F 32.0°F 75% 29.88 in 10.0 miles Calm Calm - N/A   Clear
4:55 PM 35.6°F 32.0°F 87% 29.88 in 10.0 miles Calm Calm - N/A   Clear
5:15 PM 33.8°F 32.0°F 93% 29.89 in 10.0 miles Calm Calm - N/A   Clear
5:35 PM 32.0°F 32.0°F 100% 29.90 in 10.0 miles Calm Calm - N/A   Clear
5:55 PM 32.0°F 32.0°F 100% 29.90 in 10.0 miles Calm Calm - N/A   Clear
6:15 PM 32.0°F 30.2°F 93% 29.90 in 10.0 miles Calm Calm - N/A   Clear
6:35 PM 32.0°F 30.2°F 93% 29.90 in 10.0 miles Calm Calm - N/A   Clear
6:55 PM 32.0°F 32.0°F 100% 29.90 in 10.0 miles Calm Calm - N/A   Clear
7:15 PM 32.0°F 30.2°F 93% 29.91 in 10.0 miles Calm Calm - N/A   Clear
7:35 PM 28.4°F 28.4°F 100% 29.91 in 10.0 miles Calm Calm - N/A   Clear
7:55 PM 28.4°F 28.4°F 100% 29.91 in 10.0 miles Calm Calm - N/A   Clear
8:15 PM 30.2°F 30.2°F 100% 29.92 in 10.0 miles Calm Calm - N/A   Clear
8:35 PM 28.4°F 28.4°F 100% 29.92 in 10.0 miles Calm Calm - N/A   Clear
8:55 PM 28.4°F 28.4°F 100% 29.93 in 10.0 miles Calm Calm - N/A   Clear
9:15 PM 28.4°F 28.4°F 100% 29.93 in 10.0 miles Calm Calm - N/A   Clear
9:35 PM 28.4°F 28.4°F 100% 29.93 in 10.0 miles Calm Calm - N/A   Clear
9:55 PM 28.4°F 28.4°F 100% 29.93 in 10.0 miles Calm Calm - N/A   Clear
10:15 PM 26.6°F 26.6°F 100% 29.93 in 10.0 miles Calm Calm - N/A   Clear
10:35 PM 26.6°F 26.6°F 100% 29.94 in 10.0 miles Calm Calm - N/A   Clear
10:55 PM 28.4°F 28.4°F 100% 29.94 in 10.0 miles Calm Calm - N/A   Clear
11:15 PM 28.4°F 28.4°F 100% 29.94 in 10.0 miles Calm Calm - N/A   Clear
11:35 PM 28.4°F 28.4°F 100% 29.95 in 10.0 miles Calm Calm - N/A   Clear
11:55 PM 26.6°F 26.6°F 100% 29.95 in 10.0 miles Calm Calm - N/A   Clear
Moon Phase
Nov. 09 Nov. 13 Nov. 20 Nov. 28 Dec. 06
Sunrise:07:04 AM (PST) Moon Rise:01:52 AM (PST)11/9
Sunset:04:40 PM (PST) Moon Set:02:11 PM (PST)11/9

Copyright © 2014 The Weather Underground, Inc.